QPF
0.01 0.01 0.01 0.00 0.00 0.01 0.01 0.01 0.01 0.01 0.00 0.00 0.00 0.00 0.00 0.00 0.00 0.00 0.00 0.00 0.00 0.00 0.00 0.00 0.00 0.01 0.01 0.01 0.01 0.01 0.01 0.01 0.02 0.03 0.03 0.03 0.03 0.03 0.03 0.03 0.04 0.04 0.04 0.04
0.02 0.01 0.00 0.00 0.00 0.00 0.01 0.01 0.01 0.00 0.00 0.00 0.00 0.00 0.00 0.00 0.00 0.00 0.00 0.00 0.00 0.00 0.00 0.00 0.00 0.01 0.01 0.01 0.01 0.01 0.01 0.01 0.01 0.02 0.02 0.02 0.03 0.03 0.03 0.03 0.03 0.04 0.04 0.05
0.02 0.01 0.00 0.00 0.01 0.01 0.01 0.01 0.00 0.00 0.00 0.00 0.00 0.00 0.00 0.00 0.00 0.00 0.00 0.00 0.00 0.00 0.00 0.00 0.00 0.00 0.01 0.01 0.01 0.00 0.00 0.01 0.01 0.02 0.02 0.02 0.03 0.03 0.03 0.02 0.02 0.03 0.04 0.04
0.01 0.00 0.01 0.01 0.01 0.01 0.01 0.00 0.00 0.00 0.00 0.00 0.01 0.01 0.00 0.00 0.00 0.00 0.00 0.00 0.00 0.00 0.00 0.00 0.00 0.00 0.00 0.00 0.01 0.01 0.01 0.01 0.01 0.01 0.02 0.02 0.03 0.02 0.02 0.02 0.02 0.03 0.04 0.05
0.02 0.01 0.01 0.01 0.00 0.00 0.00 0.00 0.00 0.01 0.01 0.01 0.01 0.01 0.00 0.00 0.00 0.00 0.00 0.00 0.00 0.00 0.00 0.00 0.00 0.00 0.00 0.00 0.01 0.01 0.01 0.01 0.01 0.01 0.01 0.02 0.02 0.02 0.01 0.01 0.02 0.02 0.03 0.04
0.01 0.01 0.01 0.01 0.00 0.00 0.00 0.01 0.01 0.02 0.03 0.03 0.01 0.01 0.00 0.00 0.00 0.00 0.00 0.00 0.00 0.00 0.00 0.00 0.00 0.00 0.01 0.01 0.01 0.01 0.02 0.02 0.01 0.01 0.01 0.02 0.02 0.02 0.02 0.01 0.01 0.02 0.02 0.02
0.00 0.00 0.01 0.01 0.01 0.01 0.02 0.03 0.04 0.04 0.04 0.02 0.00 0.00 0.00 0.00 0.00 0.00 0.00 0.00 0.00 0.00 0.00 0.00 0.00 0.00 0.00 0.01 0.01 0.01 0.01 0.02 0.01 0.01 0.01 0.01 0.01 0.01 0.02 0.01 0.01 0.01 0.02 0.02
0.01 0.00 0.00 0.01 0.01 0.01 0.01 0.02 0.02 0.02 0.01 0.00 0.00 0.00 0.00 0.00 0.00 0.00 0.00 0.00 0.00 0.00 0.00 0.00 0.00 0.00 0.00 0.00 0.01 0.01 0.01 0.01 0.01 0.01 0.01 0.01 0.01 0.01 0.01 0.01 0.01 0.01 0.01 0.01
0.01 0.01 0.00 0.01 0.01 0.01 0.02 0.03 0.02 0.02 0.02 0.01 0.00 0.00 0.00 0.00 0.00 0.00 0.00 0.00 0.00 0.00 0.00 0.00 0.00 0.00 0.00 0.00 0.00 0.01 0.01 0.01 0.01 0.02 0.02 0.02 0.01 0.01 0.01 0.01 0.01 0.01 0.01 0.01
0.02 0.01 0.00 0.00 0.01 0.02 0.03 0.04 0.04 0.05 0.04 0.02 0.00 0.00 0.00 0.00 0.00 0.00 0.00 0.00 0.00 0.00 0.00 0.00 0.00 0.00 0.00 0.00 0.00 0.00 0.01 0.01 0.01 0.01 0.02 0.02 0.02 0.02 0.01 0.01 0.01 0.01 0.01 0.01
0.01 0.02 0.01 0.00 0.01 0.02 0.02 0.04 0.04 0.04 0.03 0.02 0.01 0.00 0.00 0.00 0.00 0.00 0.00 0.00 0.00 0.00 0.00 0.00 0.00 0.00 0.00 0.00 0.00 0.00 0.00 0.00 0.01 0.01 0.01 0.01 0.01 0.02 0.02 0.01 0.01 0.01 0.01 0.01
0.01 0.02 0.01 0.01 0.00 0.01 0.02 0.03 0.03 0.04 0.03 0.02 0.01 0.00 0.00 0.00 0.00 0.00 0.00 0.00 0.00 0.00 0.00 0.00 0.00 0.00 0.00 0.00 0.00 0.00 0.00 0.00 0.00 0.00 0.00 0.01 0.01 0.01 0.02 0.02 0.01 0.01 0.01 0.01
0.01 0.02 0.01 0.01 0.01 0.01 0.02 0.02 0.03 0.03 0.03 0.02 0.01 0.00 0.00 0.00 0.00 0.00 0.00 0.00 0.00 0.00 0.00 0.00 0.00 0.00 0.00 0.00 0.00 0.00 0.00 0.00 0.00 0.00 0.00 0.00 0.00 0.01 0.01 0.02 0.02 0.02 0.01 0.02
0.01 0.02 0.01 0.01 0.01 0.01 0.01 0.01 0.02 0.03 0.04 0.02 0.01 0.00 0.00 0.00 0.00 0.00 0.00 0.00 0.00 0.00 0.00 0.00 0.00 0.00 0.00 0.00 0.00 0.00 0.00 0.00 0.00 0.00 0.00 0.00 0.00 0.00 0.01 0.01 0.02 0.02 0.02 0.02
0.01 0.01 0.01 0.01 0.00 0.00 0.00 0.00 0.01 0.01 0.02 0.02 0.01 0.00 0.00 0.00 0.00 0.00 0.00 0.00 0.00 0.00 0.00 0.00 0.00 0.00 0.00 0.00 0.00 0.00 0.00 0.00 0.00 0.00 0.00 0.00 0.00 0.01 0.01 0.01 0.01 0.02 0.02 0.02
0.01 0.01 0.01 0.01 0.00 0.00 0.00 0.00 0.00 0.00 0.01 0.01 0.00 0.00 0.00 0.00 0.00 0.00 0.00 0.00 0.00 0.00 0.00 0.00 0.00 0.00 0.00 0.00 0.00 0.00 0.00 0.00 0.00 0.00 0.00 0.00 0.00 0.01 0.01 0.01 0.01 0.01 0.02 0.02
0.01 0.02 0.02 0.01 0.00 0.00 0.00 0.00 0.00 0.00 0.00 0.00 0.01 0.00 0.00 0.00 0.00 0.00 0.00 0.00 0.00 0.00 0.01 0.01 0.01 0.01 0.00 0.00 0.00 0.00 0.00 0.00 0.00 0.00 0.00 0.00 0.00 0.01 0.01 0.01 0.01 0.01 0.02 0.03
0.02 0.02 0.02 0.01 0.01 0.01 0.00 0.00 0.00 0.00 0.00 0.00 0.00 0.00 0.00 0.00 0.00 0.01 0.01 0.00 0.00 0.01 0.01 0.01 0.01 0.01 0.01 0.00 0.00 0.00 0.00 0.00 0.00 0.00 0.00 0.00 0.00 0.01 0.01 0.01 0.01 0.01 0.02 0.03
0.01 0.02 0.02 0.02 0.01 0.00 0.00 0.00 0.00 0.01 0.01 0.01 0.01 0.00 0.00 0.00 0.00 0.01 0.01 0.01 0.01 0.01 0.01 0.01 0.01 0.01 0.01 0.01 0.00 0.00 0.00 0.00 0.00 0.00 0.00 0.00 0.00 0.01 0.01 0.01 0.01 0.01 0.02 0.03
0.01 0.01 0.02 0.02 0.02 0.01 0.00 0.00 0.00 0.00 0.01 0.01 0.01 0.01 0.01 0.01 0.01 0.01 0.01 0.01 0.01 0.01 0.01 0.01 0.01 0.01 0.01 0.01 0.00 0.00 0.00 0.00 0.00 0.00 0.00 0.00 0.01 0.01 0.01 0.01 0.01 0.01 0.02 0.02
0.01 0.02 0.02 0.02 0.02 0.01 0.00 0.00 0.00 0.01 0.02 0.02 0.01 0.01 0.01 0.01 0.02 0.01 0.01 0.01 0.01 0.02 0.02 0.01 0.01 0.01 0.01 0.01 0.01 0.01 0.00 0.00 0.00 0.00 0.00 0.01 0.01 0.01 0.01 0.01 0.01 0.02 0.02 0.02
0.01 0.01 0.01 0.01 0.02 0.01 0.00 0.00 0.01 0.02 0.02 0.02 0.01 0.01 0.01 0.01 0.01 0.01 0.01 0.01 0.01 0.02 0.02 0.02 0.01 0.01 0.01 0.01 0.01 0.01 0.01 0.01 0.01 0.01 0.01 0.01 0.01 0.01 0.01 0.01 0.01 0.02 0.02 0.02
0.00 0.01 0.01 0.00 0.00 0.00 0.00 0.00 0.01 0.00 0.01 0.01 0.01 0.01 0.00 0.00 0.01 0.01 0.01 0.01 0.01 0.02 0.03 0.03 0.02 0.02 0.02 0.01 0.02 0.02 0.01 0.01 0.01 0.01 0.01 0.01 0.01 0.01 0.01 0.02 0.02 0.02 0.02 0.02
0.00 0.01 0.01 0.01 0.00 0.00 0.01 0.01 0.00 0.00 0.00 0.01 0.01 0.01 0.01 0.01 0.01 0.01 0.01 0.01 0.02 0.02 0.02 0.03 0.02 0.02 0.02 0.01 0.01 0.02 0.02 0.02 0.01 0.01 0.01 0.01 0.01 0.01 0.01 0.01 0.02 0.02 0.02 0.02
0.01 0.01 0.01 0.01 0.00 0.00 0.00 0.01 0.01 0.01 0.01 0.01 0.01 0.01 0.01 0.01 0.01 0.01 0.01 0.01 0.02 0.02 0.02 0.02 0.02 0.02 0.02 0.02 0.01 0.01 0.01 0.01 0.01 0.01 0.01 0.01 0.01 0.01 0.01 0.01 0.02 0.02 0.02 0.03
0.00 0.00 0.01 0.01 0.01 0.01 0.01 0.01 0.01 0.01 0.01 0.01 0.01 0.01 0.01 0.01 0.01 0.01 0.01 0.01 0.01 0.01 0.01 0.01 0.02 0.02 0.02 0.02 0.01 0.01 0.01 0.01 0.01 0.01 0.01 0.01 0.01 0.01 0.01 0.01 0.02 0.02 0.03 0.03
MSLP
1017.78 1017.78 1017.76 1017.73 1017.69 1017.64 1017.59 1017.51 1017.39 1017.23 1016.99 1016.66 1016.24 1015.74 1015.15 1014.49 1013.79 1013.07 1012.38 1011.74 1011.18 1010.76 1010.51 1010.46 1010.63 1011.03 1011.66 1012.49 1013.49 1014.60 1015.78 1016.97 1018.13 1019.20 1020.18 1021.04 1021.80 1022.44 1022.99 1023.44 1023.82 1024.12 1024.35 1024.51
1017.76 1017.74 1017.69 1017.64 1017.57 1017.50 1017.42 1017.32 1017.19 1017.03 1016.81 1016.52 1016.16 1015.73 1015.23 1014.65 1014.02 1013.36 1012.69 1012.03 1011.44 1010.94 1010.59 1010.43 1010.48 1010.77 1011.29 1012.04 1012.98 1014.07 1015.25 1016.46 1017.65 1018.79 1019.83 1020.77 1021.59 1022.30 1022.90 1023.41 1023.82 1024.15 1024.40 1024.59
1017.85 1017.82 1017.76 1017.68 1017.58 1017.46 1017.34 1017.20 1017.04 1016.87 1016.67 1016.43 1016.16 1015.85 1015.48 1015.05 1014.56 1014.01 1013.42 1012.80 1012.19 1011.64 1011.20 1010.91 1010.81 1010.95 1011.33 1011.94 1012.77 1013.76 1014.88 1016.05 1017.24 1018.38 1019.45 1020.42 1021.29 1022.05 1022.71 1023.26 1023.72 1024.10 1024.39 1024.62
1018.05 1018.03 1017.97 1017.86 1017.72 1017.55 1017.37 1017.17 1016.97 1016.78 1016.60 1016.44 1016.28 1016.11 1015.93 1015.69 1015.39 1015.00 1014.53 1013.99 1013.41 1012.83 1012.30 1011.88 1011.63 1011.60 1011.79 1012.23 1012.89 1013.74 1014.74 1015.82 1016.93 1018.02 1019.07 1020.04 1020.92 1021.71 1022.40 1023.00 1023.51 1023.93 1024.28 1024.56
1018.32 1018.33 1018.27 1018.14 1017.96 1017.73 1017.48 1017.22 1016.98 1016.78 1016.63 1016.55 1016.52 1016.53 1016.55 1016.53 1016.45 1016.26 1015.95 1015.51 1014.98 1014.39 1013.79 1013.27 1012.87 1012.65 1012.66 1012.90 1013.36 1014.03 1014.85 1015.78 1016.76 1017.76 1018.73 1019.65 1020.51 1021.29 1022.00 1022.63 1023.19 1023.67 1024.08 1024.42
1018.59 1018.62 1018.56 1018.42 1018.20 1017.92 1017.60 1017.29 1017.02 1016.83 1016.74 1016.75 1016.87 1017.07 1017.31 1017.53 1017.67 1017.69 1017.54 1017.23 1016.77 1016.19 1015.55 1014.92 1014.39 1014.01 1013.83 1013.86 1014.12 1014.57 1015.19 1015.93 1016.75 1017.60 1018.45 1019.28 1020.08 1020.83 1021.54 1022.19 1022.79 1023.32 1023.79 1024.20
1018.77 1018.82 1018.77 1018.61 1018.35 1018.03 1017.67 1017.33 1017.06 1016.90 1016.88 1017.02 1017.30 1017.70 1018.16 1018.60 1018.96 1019.18 1019.20 1019.01 1018.61 1018.06 1017.39 1016.70 1016.06 1015.54 1015.18 1015.02 1015.07 1015.31 1015.71 1016.24 1016.86 1017.53 1018.23 1018.95 1019.66 1020.37 1021.06 1021.72 1022.34 1022.92 1023.46 1023.93
1018.84 1018.88 1018.81 1018.63 1018.35 1018.00 1017.63 1017.29 1017.05 1016.95 1017.04 1017.31 1017.77 1018.36 1019.02 1019.67 1020.23 1020.62 1020.78 1020.70 1020.38 1019.85 1019.18 1018.44 1017.72 1017.08 1016.58 1016.25 1016.11 1016.14 1016.32 1016.63 1017.05 1017.53 1018.07 1018.66 1019.28 1019.92 1020.58 1021.25 1021.90 1022.52 1023.11 1023.64
1018.80 1018.81 1018.71 1018.50 1018.19 1017.83 1017.47 1017.16 1016.98 1016.97 1017.18 1017.60 1018.23 1019.00 1019.84 1020.67 1021.39 1021.92 1022.20 1022.20 1021.94 1021.45 1020.78 1020.02 1019.24 1018.52 1017.91 1017.44 1017.12 1016.96 1016.95 1017.06 1017.27 1017.57 1017.95 1018.40 1018.93 1019.51 1020.15 1020.81 1021.48 1022.14 1022.76 1023.34
1018.75 1018.70 1018.54 1018.29 1017.96 1017.60 1017.26 1017.00 1016.90 1017.00 1017.33 1017.90 1018.67 1019.60 1020.59 1021.55 1022.39 1023.02 1023.38 1023.45 1023.24 1022.77 1022.12 1021.35 1020.55 1019.78 1019.09 1018.51 1018.06 1017.74 1017.54 1017.46 1017.49 1017.62 1017.85 1018.19 1018.62 1019.15 1019.75 1020.41 1021.10 1021.78 1022.43 1023.03
1018.82 1018.68 1018.46 1018.16 1017.80 1017.44 1017.12 1016.92 1016.89 1017.09 1017.53 1018.22 1019.11 1020.15 1021.25 1022.30 1023.21 1023.89 1024.31 1024.42 1024.24 1023.81 1023.18 1022.43 1021.63 1020.84 1020.10 1019.45 1018.89 1018.43 1018.09 1017.85 1017.71 1017.69 1017.79 1018.02 1018.37 1018.84 1019.42 1020.06 1020.75 1021.43 1022.10 1022.71
1019.14 1018.92 1018.62 1018.27 1017.88 1017.50 1017.20 1017.04 1017.07 1017.34 1017.86 1018.63 1019.59 1020.69 1021.83 1022.92 1023.86 1024.57 1025.00 1025.14 1025.00 1024.61 1024.02 1023.31 1022.53 1021.75 1020.99 1020.29 1019.65 1019.10 1018.63 1018.25 1017.97 1017.81 1017.79 1017.91 1018.18 1018.59 1019.12 1019.74 1020.41 1021.09 1021.74 1022.33
1019.83 1019.53 1019.16 1018.75 1018.32 1017.93 1017.62 1017.47 1017.53 1017.82 1018.38 1019.16 1020.15 1021.25 1022.39 1023.47 1024.39 1025.09 1025.53 1025.69 1025.58 1025.23 1024.71 1024.05 1023.32 1022.57 1021.82 1021.10 1020.42 1019.78 1019.21 1018.71 1018.31 1018.02 1017.88 1017.89 1018.07 1018.41 1018.88 1019.44 1020.07 1020.71 1021.32 1021.89
1020.90 1020.54 1020.12 1019.66 1019.19 1018.76 1018.43 1018.26 1018.30 1018.58 1019.11 1019.87 1020.81 1021.87 1022.95 1023.98 1024.86 1025.53 1025.96 1026.13 1026.06 1025.77 1025.32 1024.74 1024.08 1023.39 1022.67 1021.95 1021.24 1020.55 1019.90 1019.30 1018.78 1018.37 1018.11 1018.00 1018.07 1018.30 1018.67 1019.16 1019.71 1020.29 1020.84 1021.36
1022.30 1021.90 1021.44 1020.94 1020.43 1019.96 1019.58 1019.37 1019.36 1019.58 1020.05 1020.73 1021.59 1022.55 1023.55 1024.49 1025.31 1025.94 1026.35 1026.54 1026.51 1026.29 1025.91 1025.43 1024.86 1024.24 1023.58 1022.88 1022.17 1021.45 1020.73 1020.04 1019.41 1018.89 1018.49 1018.25 1018.18 1018.28 1018.53 1018.90 1019.34 1019.82 1020.30 1020.75
1023.88 1023.47 1022.99 1022.45 1021.90 1021.38 1020.95 1020.68 1020.60 1020.75 1021.12 1021.70 1022.45 1023.30 1024.19 1025.04 1025.78 1026.36 1026.75 1026.95 1026.97 1026.82 1026.53 1026.14 1025.67 1025.13 1024.54 1023.89 1023.20 1022.46 1021.70 1020.94 1020.22 1019.57 1019.04 1018.65 1018.42 1018.36 1018.45 1018.67 1018.97 1019.33 1019.71 1020.08
1025.46 1025.04 1024.54 1023.97 1023.39 1022.83 1022.36 1022.02 1021.88 1021.94 1022.22 1022.70 1023.33 1024.07 1024.85 1025.60 1026.27 1026.80 1027.17 1027.39 1027.44 1027.36 1027.16 1026.86 1026.49 1026.04 1025.52 1024.93 1024.27 1023.54 1022.76 1021.95 1021.15 1020.40 1019.73 1019.19 1018.80 1018.56 1018.46 1018.50 1018.63 1018.85 1019.10 1019.38
1026.83 1026.41 1025.88 1025.29 1024.68 1024.09 1023.58 1023.21 1023.02 1023.02 1023.23 1023.62 1024.16 1024.81 1025.49 1026.16 1026.75 1027.24 1027.60 1027.82 1027.91 1027.88 1027.76 1027.55 1027.26 1026.90 1026.46 1025.94 1025.32 1024.62 1023.84 1023.00 1022.15 1021.31 1020.54 1019.85 1019.28 1018.86 1018.57 1018.41 1018.36 1018.41 1018.53 1018.71
1027.87 1027.40 1026.85 1026.23 1025.59 1024.99 1024.47 1024.09 1023.88 1023.86 1024.03 1024.38 1024.87 1025.44 1026.06 1026.67 1027.21 1027.66 1028.00 1028.23 1028.35 1028.36 1028.29 1028.15 1027.94 1027.65 1027.29 1026.83 1026.28 1025.62 1024.87 1024.03 1023.16 1022.26 1021.39 1020.59 1019.87 1019.26 1018.78 1018.42 1018.18 1018.06 1018.03 1018.09
1028.46 1027.94 1027.34 1026.69 1026.04 1025.44 1024.94 1024.59 1024.40 1024.40 1024.58 1024.92 1025.38 1025.93 1026.51 1027.08 1027.59 1028.03 1028.36 1028.59 1028.72 1028.77 1028.75 1028.65 1028.50 1028.28 1027.98 1027.59 1027.10 1026.50 1025.79 1024.99 1024.12 1023.20 1022.27 1021.36 1020.51 1019.75 1019.09 1018.55 1018.12 1017.82 1017.63 1017.56
1028.60 1028.01 1027.35 1026.67 1026.03 1025.45 1025.00 1024.70 1024.57 1024.62 1024.84 1025.21 1025.70 1026.25 1026.83 1027.38 1027.89 1028.31 1028.65 1028.89 1029.04 1029.11 1029.12 1029.07 1028.96 1028.79 1028.55 1028.22 1027.79 1027.26 1026.61 1025.85 1025.00 1024.09 1023.13 1022.16 1021.22 1020.33 1019.51 1018.79 1018.19 1017.71 1017.36 1017.15
1028.33 1027.66 1026.95 1026.26 1025.63 1025.11 1024.72 1024.50 1024.46 1024.59 1024.88 1025.30 1025.83 1026.41 1027.00 1027.58 1028.09 1028.53 1028.88 1029.14 1029.32 1029.43 1029.46 1029.45 1029.37 1029.24 1029.05 1028.77 1028.40 1027.93 1027.34 1026.63 1025.83 1024.94 1023.98 1022.98 1021.97 1020.97 1020.03 1019.16 1018.40 1017.75 1017.23 1016.86
1027.72 1026.98 1026.25 1025.56 1024.98 1024.52 1024.23 1024.11 1024.16 1024.39 1024.76 1025.25 1025.83 1026.45 1027.08 1027.68 1028.23 1028.70 1029.09 1029.39 1029.61 1029.76 1029.84 1029.86 1029.82 1029.72 1029.56 1029.32 1029.00 1028.57 1028.03 1027.38 1026.62 1025.76 1024.81 1023.80 1022.75 1021.69 1020.64 1019.65 1018.74 1017.93 1017.25 1016.71
1026.86 1026.09 1025.36 1024.72 1024.21 1023.85 1023.66 1023.64 1023.81 1024.12 1024.57 1025.13 1025.76 1026.42 1027.09 1027.74 1028.33 1028.86 1029.31 1029.67 1029.96 1030.17 1030.30 1030.37 1030.37 1030.30 1030.16 1029.95 1029.64 1029.24 1028.74 1028.12 1027.39 1026.56 1025.64 1024.63 1023.56 1022.45 1021.34 1020.25 1019.21 1018.26 1017.41 1016.71
1025.83 1025.08 1024.40 1023.85 1023.44 1023.19 1023.12 1023.23 1023.49 1023.90 1024.41 1025.02 1025.69 1026.39 1027.10 1027.79 1028.44 1029.04 1029.56 1030.01 1030.39 1030.67 1030.88 1031.00 1031.05 1031.01 1030.88 1030.67 1030.37 1029.97 1029.48 1028.87 1028.17 1027.36 1026.45 1025.46 1024.39 1023.26 1022.10 1020.93 1019.80 1018.72 1017.74 1016.87
1024.71 1024.02 1023.45 1023.01 1022.74 1022.64 1022.70 1022.92 1023.29 1023.77 1024.34 1024.99 1025.68 1026.41 1027.15 1027.88 1028.59 1029.26 1029.88 1030.43 1030.90 1031.28 1031.57 1031.75 1031.83 1031.81 1031.69 1031.47 1031.15 1030.74 1030.23 1029.62 1028.92 1028.12 1027.24 1026.26 1025.20 1024.07 1022.90 1021.69 1020.49 1019.32 1018.21 1017.21
Thickness
5513 5507 5506 5509 5511 5512 5507 5502 5500 5502 5505 5503 5503 5507 5515 5514 5511 5510 5510 5511 5513 5516 5518 5518 5518 5519 5520 5520 5521 5522 5523 5523 5523 5523 5523 5523 5523 5523 5523 5522 5522 5521 5521 5520
5498 5499 5505 5504 5503 5501 5498 5495 5493 5496 5498 5496 5495 5501 5509 5508 5507 5507 5507 5506 5507 5508 5509 5510 5509 5509 5509 5510 5511 5512 5512 5513 5513 5513 5513 5513 5513 5512 5512 5511 5511 5511 5510 5509
5494 5496 5498 5497 5495 5494 5492 5488 5488 5487 5487 5485 5483 5498 5505 5506 5503 5503 5503 5501 5501 5502 5501 5501 5500 5499 5499 5500 5501 5502 5502 5503 5503 5503 5502 5502 5502 5502 5501 5501 5501 5500 5500 5500
5482 5487 5489 5489 5488 5489 5489 5488 5484 5480 5475 5473 5476 5478 5502 5498 5496 5499 5497 5493 5492 5492 5493 5492 5491 5490 5489 5489 5490 5491 5491 5491 5492 5492 5492 5491 5491 5491 5491 5491 5490 5490 5489 5489
5476 5478 5481 5482 5483 5482 5479 5479 5475 5472 5467 5462 5463 5463 5491 5487 5494 5498 5492 5487 5484 5484 5485 5484 5483 5482 5480 5479 5479 5479 5479 5480 5480 5481 5481 5480 5480 5481 5481 5480 5480 5479 5479 5478
5467 5469 5471 5474 5474 5475 5470 5467 5461 5454 5452 5453 5464 5458 5481 5478 5491 5493 5488 5481 5477 5475 5474 5473 5473 5471 5470 5468 5467 5467 5468 5469 5469 5469 5469 5470 5470 5469 5470 5470 5469 5469 5468 5467
5458 5460 5461 5462 5464 5464 5463 5458 5446 5441 5433 5446 5453 5454 5475 5484 5481 5481 5479 5474 5469 5466 5464 5462 5461 5460 5459 5458 5457 5456 5457 5457 5457 5458 5458 5459 5459 5459 5458 5458 5458 5458 5457 5456
5446 5450 5452 5452 5454 5452 5453 5454 5447 5442 5437 5438 5437 5447 5474 5474 5469 5466 5465 5462 5460 5457 5454 5452 5451 5449 5449 5448 5447 5445 5445 5446 5446 5446 5447 5447 5447 5447 5447 5447 5447 5446 5446 5446
5435 5440 5441 5443 5444 5445 5442 5439 5441 5427 5412 5415 5431 5440 5457 5464 5461 5458 5455 5452 5449 5447 5445 5442 5441 5439 5437 5436 5436 5435 5434 5434 5434 5434 5435 5435 5436 5436 5436 5436 5436 5435 5435 5435
5425 5423 5428 5430 5435 5433 5433 5428 5420 5415 5414 5420 5430 5436 5457 5465 5459 5454 5448 5444 5441 5438 5435 5432 5430 5429 5427 5425 5424 5423 5422 5422 5422 5422 5423 5424 5424 5424 5424 5424 5424 5423 5423 5423
5415 5412 5415 5417 5418 5421 5417 5415 5413 5406 5403 5411 5416 5442 5455 5456 5452 5446 5442 5436 5431 5428 5425 5423 5421 5418 5416 5414 5413 5411 5410 5410 5410 5410 5410 5411 5412 5412 5413 5413 5413 5413 5412 5412
5405 5398 5397 5403 5406 5408 5409 5408 5403 5403 5394 5394 5406 5436 5450 5441 5436 5433 5429 5425 5420 5416 5413 5411 5408 5406 5404 5403 5401 5400 5399 5398 5398 5398 5398 5399 5400 5400 5401 5401 5401 5401 5401 5400
5393 5386 5384 5396 5395 5391 5391 5392 5390 5386 5383 5379 5389 5427 5434 5426 5423 5421 5415 5410 5407 5404 5402 5399 5396 5394 5393 5391 5390 5389 5387 5386 5386 5386 5386 5387 5387 5388 5389 5389 5390 5389 5389 5389
5388 5375 5380 5394 5401 5386 5380 5381 5378 5376 5375 5374 5388 5414 5423 5419 5414 5409 5402 5398 5394 5393 5392 5388 5385 5383 5382 5380 5378 5377 5376 5375 5375 5374 5375 5375 5376 5376 5377 5377 5378 5378 5378 5378
5374 5364 5359 5366 5370 5369 5372 5376 5373 5372 5378 5380 5396 5398 5416 5413 5404 5398 5392 5388 5386 5386 5385 5382 5377 5373 5370 5369 5367 5365 5364 5364 5363 5363 5363 5363 5363 5364 5365 5365 5366 5366 5366 5366
5358 5351 5346 5349 5355 5356 5360 5371 5372 5372 5372 5373 5380 5390 5403 5394 5387 5384 5380 5378 5377 5376 5374 5372 5369 5365 5361 5359 5356 5353 5352 5352 5352 5352 5352 5352 5352 5352 5353 5354 5354 5354 5354 5354
5343 5337 5336 5337 5335 5343 5349 5371 5372 5369 5371 5372 5377 5392 5385 5379 5377 5373 5369 5368 5366 5364 5362 5359 5357 5353 5350 5346 5344 5341 5341 5340 5340 5340 5340 5340 5340 5340 5341 5342 5342 5342 5342 5342
5334 5328 5319 5312 5321 5338 5382 5374 5372 5370 5369 5365 5369 5371 5369 5367 5361 5354 5351 5351 5352 5350 5348 5345 5343 5339 5336 5333 5331 5330 5329 5328 5328 5328 5328 5328 5328 5329 5330 5330 5330 5330 5330 5330
5333 5327 5308 5301 5308 5329 5360 5362 5357 5357 5360 5357 5355 5356 5351 5345 5345 5346 5342 5339 5338 5337 5334 5331 5329 5326 5323 5321 5320 5318 5317 5316 5316 5316 5317 5317 5317 5318 5319 5319 5318 5318 5318 5319
5319 5317 5306 5292 5304 5320 5366 5355 5350 5351 5352 5353 5345 5342 5338 5335 5341 5345 5334 5327 5324 5322 5320 5317 5315 5313 5311 5309 5308 5306 5305 5304 5304 5305 5305 5306 5306 5307 5307 5308 5307 5307 5307 5308
5303 5299 5297 5289 5293 5322 5342 5335 5338 5342 5354 5344 5335 5332 5328 5326 5329 5325 5319 5316 5312 5309 5307 5304 5302 5301 5300 5298 5297 5296 5294 5293 5293 5293 5294 5295 5296 5296 5296 5296 5296 5296 5296 5296
5307 5297 5290 5283 5287 5321 5329 5323 5330 5339 5333 5328 5325 5321 5317 5314 5311 5308 5306 5303 5300 5297 5294 5292 5289 5288 5287 5285 5285 5284 5282 5282 5282 5282 5282 5283 5285 5285 5285 5284 5284 5284 5284 5284
5306 5313 5310 5310 5325 5327 5317 5318 5319 5317 5316 5315 5314 5311 5307 5302 5299 5296 5293 5291 5289 5286 5283 5280 5277 5275 5273 5272 5272 5272 5272 5271 5270 5270 5271 5272 5273 5272 5273 5272 5272 5272 5272 5272
5294 5293 5296 5296 5309 5310 5306 5304 5304 5303 5302 5303 5300 5298 5294 5290 5288 5285 5283 5281 5277 5274 5271 5268 5264 5263 5262 5260 5259 5259 5260 5259 5258 5258 5259 5260 5259 5260 5259 5259 5260 5260 5260 5260
5292 5281 5283 5286 5298 5297 5301 5298 5298 5295 5292 5289 5286 5283 5280 5277 5275 5273 5271 5269 5265 5263 5259 5256 5253 5251 5250 5248 5247 5247 5247 5247 5247 5247 5247 5247 5247 5247 5247 5247 5247 5247 5248 5248
5281 5279 5284 5300 5300 5295 5300 5294 5288 5284 5281 5277 5274 5270 5267 5264 5262 5259 5257 5254 5251 5248 5245 5243 5241 5239 5237 5235 5235 5235 5235 5235 5235 5236 5236 5235 5235 5234 5234 5234 5235 5236 5238 5239